Weather History for Mineral Point, WI

Change the Weather History Date:

Thursday, February 21, 2013

  Actual Average (KLNR) Record (KLNR)
Temperature  
Mean Temperature 20 °F -  
Max Temperature 28 °F 34 °F 50 °F (2003)
Min Temperature 12 °F 18 °F -18 °F (2008)
Degree Days  
Heating Degree Days 45    
Moisture  
Dew Point 14 °F    
Average Humidity 78    
Maximum Humidity 93    
Minimum Humidity 63    
Precipitation  
Precipitation 0.00 in - - ()
Sea Level Pressure  
Sea Level Pressure 30.21 in    
Wind  
Wind Speed 10 mph (ENE)    
Max Wind Speed 22 mph    
Max Gust Speed 29 mph    
Visibility 8 miles    
Events Snow    
Averages and records for this station are not official NWS values.
T = Trace of Precipitation, MM = Missing Value Source: NWS Daily Summary

Daily Weather History Graph

Daily Weather History Graph

Search for Another Location

Airport:

Trip Planner

Search our weather history database for the weather conditions in past years. The results will help you decide how hot, cold, wet, or windy it might be!

Date:

Astronomy

Feb. 21, 2013 Rise Set
Actual Time 6:49 AM CST 5:40 PM CST
Civil Twilight 6:20 AM CST 6:09 PM CST
Nautical Twilight 5:47 AM CST 6:42 PM CST
Astronomical Twilight 5:14 AM CST 7:15 PM CST
Moon 1:51 PM CST (2/21) 3:57 AM CST (2/21)
Length of Visible Light 11h 49m
Length of Day
10h 51m
Waxing Gibbous, 84% of the Moon is Illuminated
Feb 21
Waxing Gibbous
Feb 25
Full
Mar 4
Last Quarter
Mar 11
New
Mar 19
First Quarter

Hourly Weather History & Observations

Time (CST) Temp. Windchill Dew Point Humidity Pressure Visibility Wind Dir Wind Speed Gust Speed Precip Events Conditions
12:15 AM 17.6 °F 9.3 °F 6.8 °F 63% 30.32 in 10.0 mi North 5.8 mph - N/A   Clear
12:35 AM 17.6 °F 9.3 °F 6.8 °F 63% 30.32 in 10.0 mi NNE 5.8 mph - N/A   Clear
12:55 AM 17.6 °F 12.3 °F 6.8 °F 63% 30.32 in 10.0 mi NE 3.5 mph - N/A   Clear
1:15 AM 17.6 °F 12.3 °F 6.8 °F 63% 30.32 in 10.0 mi ENE 3.5 mph - N/A   Clear
1:35 AM 17.6 °F 8.2 °F 6.8 °F 63% 30.32 in 10.0 mi ENE 6.9 mph - N/A   Clear
1:55 AM 17.6 °F 8.2 °F 6.8 °F 63% 30.32 in 10.0 mi ENE 6.9 mph - N/A   Clear
2:15 AM 17.6 °F 8.2 °F 6.8 °F 63% 30.32 in 10.0 mi NE 6.9 mph - N/A   Clear
2:35 AM 17.6 °F 7.3 °F 8.6 °F 68% 30.32 in 10.0 mi ENE 8.1 mph - N/A   Clear
2:55 AM 17.6 °F 7.3 °F 8.6 °F 68% 30.33 in 10.0 mi ENE 8.1 mph - N/A   Clear
3:15 AM 17.6 °F 8.2 °F 8.6 °F 68% 30.33 in 10.0 mi ENE 6.9 mph - N/A   Clear
3:35 AM 17.6 °F 8.2 °F 8.6 °F 68% 30.34 in 10.0 mi ENE 6.9 mph - N/A   Clear
3:55 AM 15.8 °F 7.2 °F 6.8 °F 68% 30.34 in 10.0 mi ENE 5.8 mph - N/A   Clear
4:15 AM 15.8 °F 7.2 °F 6.8 °F 68% 30.35 in 10.0 mi ENE 5.8 mph - N/A   Clear
4:35 AM 14.0 °F 2.0 °F 6.8 °F 73% 30.34 in 10.0 mi ENE 9.2 mph - N/A   Clear
4:55 AM 14.0 °F -0.2 °F 6.8 °F 73% 30.32 in 10.0 mi ENE 12.7 mph - N/A   Clear
5:15 AM 14.0 °F -2.0 °F 6.8 °F 73% 30.29 in 10.0 mi NE 16.1 mph - N/A   Clear
5:35 AM 14.0 °F -2.5 °F 6.8 °F 73% 30.25 in 10.0 mi NE 17.3 mph 23.0 mph N/A   Clear
5:55 AM 14.0 °F 2.0 °F 6.8 °F 73% 30.31 in 10.0 mi East 9.2 mph - N/A   Clear
6:15 AM 14.0 °F 5.1 °F 6.8 °F 73% 30.33 in 10.0 mi East 5.8 mph - N/A   Clear
6:35 AM 12.2 °F 6.1 °F 6.8 °F 79% 30.34 in 10.0 mi ENE 3.5 mph - N/A   Clear
6:55 AM 14.0 °F 5.1 °F 6.8 °F 73% 30.34 in 10.0 mi East 5.8 mph - N/A   Clear
7:15 AM 14.0 °F 3.9 °F 6.8 °F 73% 30.33 in 10.0 mi ENE 6.9 mph - N/A   Clear
7:35 AM 14.0 °F 2.0 °F 8.6 °F 79% 30.35 in 10.0 mi ENE 9.2 mph - N/A   Clear
7:55 AM 14.0 °F 1.2 °F 8.6 °F 79% 30.35 in 10.0 mi ENE 10.4 mph - N/A   Clear
8:15 AM 14.0 °F 0.5 °F 8.6 °F 79% 30.33 in 10.0 mi ENE 11.5 mph - N/A   Clear
8:35 AM 15.8 °F 2.7 °F 8.6 °F 73% 30.32 in 10.0 mi ENE 11.5 mph 16.1 mph N/A   Clear
8:55 AM 15.8 °F 1.4 °F 8.6 °F 73% 30.32 in 10.0 mi ENE 13.8 mph 18.4 mph N/A   Clear
9:15 AM 17.6 °F 3.7 °F 8.6 °F 68% 30.31 in 10.0 mi ENE 13.8 mph - N/A   Clear
9:35 AM 17.6 °F 4.3 °F 8.6 °F 68% 30.32 in 10.0 mi ENE 12.7 mph - N/A   Clear
9:55 AM 17.6 °F 3.7 °F 10.4 °F 73% 30.31 in 10.0 mi ENE 13.8 mph - N/A   Clear
10:15 AM 19.4 °F 8.6 °F 10.4 °F 68% 30.32 in 10.0 mi East 9.2 mph - N/A   Scattered Clouds
10:35 AM 19.4 °F 7.9 °F 10.4 °F 68% 30.33 in 10.0 mi ENE 10.4 mph - N/A   Mostly Cloudy
10:55 AM 19.4 °F 8.6 °F 10.4 °F 68% 30.31 in 10.0 mi ENE 9.2 mph - N/A   Overcast
11:15 AM 19.4 °F 7.2 °F 12.2 °F 74% 30.30 in 10.0 mi East 11.5 mph - N/A   Overcast
11:35 AM 19.4 °F 7.9 °F 12.2 °F 74% 30.30 in 10.0 mi East 10.4 mph - N/A   Mostly Cloudy
11:55 AM 21.2 °F 10.9 °F 12.2 °F 68% 30.29 in 10.0 mi East 9.2 mph - N/A   Scattered Clouds
12:15 PM 21.2 °F 9.5 °F 12.2 °F 68% 30.28 in 10.0 mi ENE 11.5 mph - N/A   Scattered Clouds
12:35 PM 21.2 °F 8.9 °F 12.2 °F 68% 30.26 in 10.0 mi ENE 12.7 mph 17.3 mph N/A   Scattered Clouds
12:55 PM 21.2 °F 8.9 °F 12.2 °F 68% 30.25 in 10.0 mi ENE 12.7 mph - N/A   Scattered Clouds
1:15 PM 21.2 °F 8.3 °F 14.0 °F 74% 30.23 in 10.0 mi ENE 13.8 mph - N/A   Scattered Clouds
1:35 PM 21.2 °F 8.3 °F 14.0 °F 74% 30.21 in 10.0 mi NE 13.8 mph - N/A   Mostly Cloudy
1:55 PM 23.0 °F 10.6 °F 14.0 °F 68% 30.21 in 10.0 mi ENE 13.8 mph - N/A   Overcast
2:15 PM 23.0 °F 13.9 °F 17.6 °F 80% 30.21 in 10.0 mi ENE 8.1 mph - N/A   Overcast
2:35 PM 23.0 °F 11.7 °F 17.6 °F 80% 30.21 in 10.0 mi NE 11.5 mph - N/A   Overcast
2:55 PM 23.0 °F 13.9 °F 19.4 °F 86% 30.20 in 10.0 mi ENE 8.1 mph - N/A   Overcast
3:15 PM 23.0 °F 11.1 °F 19.4 °F 86% 30.20 in 10.0 mi ENE 12.7 mph 17.3 mph N/A   Overcast
3:35 PM 23.0 °F 11.7 °F 21.2 °F 93% 30.19 in 10.0 mi ENE 11.5 mph - N/A   Overcast
3:55 PM 23.0 °F 9.6 °F 21.2 °F 93% 30.17 in 5.0 mi ENE 16.1 mph - N/A   Overcast
4:15 PM 23.0 °F 10.1 °F 21.2 °F 93% 30.16 in 5.0 mi ENE 15.0 mph 18.4 mph N/A   Overcast
4:35 PM 23.0 °F 8.3 °F 21.2 °F 93% 30.13 in 5.0 mi ENE 19.6 mph 26.5 mph N/A   Overcast
4:55 PM 23.0 °F 10.1 °F 21.2 °F 93% 30.12 in 5.0 mi ENE 15.0 mph 25.3 mph N/A   Overcast
5:15 PM 23.0 °F 10.6 °F 21.2 °F 93% 30.11 in 5.0 mi ENE 13.8 mph 26.5 mph N/A   Overcast
5:35 PM 23.0 °F 9.6 °F 21.2 °F 93% 30.09 in 4.0 mi ENE 16.1 mph 21.9 mph N/A   Overcast
5:55 PM 24.8 °F 11.9 °F 21.2 °F 86% 30.10 in 4.0 mi ENE 16.1 mph 24.2 mph N/A   Overcast
6:15 PM 24.8 °F 10.3 °F 23.0 °F 93% 30.09 in 3.0 mi ENE 20.7 mph 28.8 mph N/A   Overcast
6:35 PM 24.8 °F 10.3 °F 23.0 °F 93% 30.08 in 4.0 mi ENE 20.7 mph 27.6 mph N/A   Overcast
6:55 PM 24.8 °F 10.7 °F 23.0 °F 93% 30.07 in 5.0 mi ENE 19.6 mph 26.5 mph N/A   Overcast
7:15 PM 24.8 °F 11.5 °F 23.0 °F 93% 30.04 in 5.0 mi ENE 17.3 mph 26.5 mph N/A   Overcast
7:35 PM 26.6 °F 13.4 °F 23.0 °F 86% 30.04 in 7.0 mi ENE 18.4 mph 27.6 mph N/A   Overcast
7:55 PM 26.6 °F 13.1 °F 23.0 °F 86% 30.04 in 7.0 mi ENE 19.6 mph 25.3 mph N/A   Overcast
8:15 PM 26.6 °F 13.8 °F 23.0 °F 86% 30.02 in 7.0 mi East 17.3 mph 24.2 mph N/A   Overcast
8:35 PM 26.6 °F 13.1 °F 24.8 °F 93% 30.01 in 10.0 mi East 19.6 mph 27.6 mph N/A   Overcast
8:55 PM 26.6 °F 12.4 °F 23.0 °F 86% 30.00 in 10.0 mi ENE 21.9 mph 28.8 mph N/A   Overcast
9:15 PM 26.6 °F 12.4 °F 23.0 °F 86% 30.00 in 10.0 mi East 21.9 mph 27.6 mph N/A   Overcast
9:35 PM 26.6 °F 13.1 °F 23.0 °F 86% 30.00 in 10.0 mi East 19.6 mph 28.8 mph N/A   Overcast
9:55 PM 28.4 °F 16.2 °F 23.0 °F 80% 30.01 in 10.0 mi East 17.3 mph 25.3 mph N/A   Overcast
10:15 PM 28.4 °F 16.6 °F 23.0 °F 80% 30.00 in 1.8 mi East 16.1 mph 20.7 mph N/A Snow Light Snow
10:55 PM 26.6 °F 13.8 °F 23.0 °F 86% 29.97 in 5.0 mi ENE 17.3 mph - N/A Snow Light Snow
11:15 PM 26.6 °F 13.4 °F 23.0 °F 86% 29.94 in 0.5 mi ENE 18.4 mph 25.3 mph N/A Snow Snow
11:35 PM 26.6 °F 12.7 °F 24.8 °F 93% 29.91 in 0.5 mi ENE 20.7 mph 26.5 mph N/A Snow Snow
11:55 PM 26.6 °F 13.1 °F 23.0 °F 86% 29.90 in 0.8 mi ENE 19.6 mph 25.3 mph N/A Snow Snow